Location: Csohesd
(46.2500°N, 22.6167°E)
Time: 13:29:16
(UTC+00:00)

H-2A R/B - Pass Details

Date: 21 October 2021
Orbit: 577 x 653 km, 98.5° (Epoch: 06 December)

Event Time Altitude Azimuth Distance (km) Brightness Sun altitude
Rises 17:56:31 0° 9° (N) 2,808 5.5 -25.5°
Reaches altitude 10° 17:58:42 10° 4° (N) 1,908 4.6 -25.9°
Maximum altitude 18:02:42 51° 289° (WNW) 747 2.7 -26.6°
Drops below altitude 10° 18:06:43 10° 214° (SW) 1,920 4.8 -27.2°
Sets 18:08:56 0° 209° (SSW) 2,828 5.6 -27.6°
